QPF
0.00 0.00 0.00 0.00 0.00 0.00 0.00 0.00 0.00 0.00 0.00 0.00 0.00 0.00 0.00 0.00 0.00 0.00 0.00 0.00 0.00 0.00 0.00 0.00 0.00 0.00 0.00 0.00 0.00 0.00 0.00 0.00 0.00 0.00 0.00 0.00 0.00 0.00 0.00 0.00 0.00 0.00 0.00
0.00 0.00 0.00 0.00 0.00 0.00 0.00 0.00 0.00 0.00 0.00 0.00 0.00 0.00 0.00 0.00 0.00 0.00 0.00 0.00 0.00 0.00 0.00 0.00 0.00 0.00 0.00 0.00 0.00 0.00 0.00 0.00 0.00 0.00 0.00 0.00 0.00 0.00 0.00 0.00 0.00 0.00 0.00
0.00 0.00 0.00 0.00 0.00 0.00 0.00 0.00 0.00 0.00 0.00 0.00 0.00 0.00 0.00 0.00 0.00 0.00 0.00 0.00 0.00 0.00 0.00 0.00 0.00 0.00 0.00 0.00 0.00 0.00 0.00 0.00 0.00 0.00 0.00 0.00 0.00 0.00 0.00 0.00 0.00 0.00 0.00
0.00 0.00 0.00 0.00 0.00 0.00 0.00 0.00 0.00 0.00 0.00 0.00 0.00 0.00 0.00 0.00 0.00 0.00 0.00 0.00 0.00 0.00 0.00 0.00 0.00 0.00 0.00 0.00 0.00 0.00 0.00 0.00 0.00 0.00 0.00 0.00 0.00 0.00 0.00 0.00 0.00 0.00 0.00
0.00 0.00 0.00 0.00 0.00 0.00 0.00 0.00 0.00 0.00 0.00 0.00 0.00 0.00 0.00 0.00 0.00 0.00 0.00 0.00 0.00 0.00 0.00 0.00 0.00 0.00 0.00 0.00 0.00 0.00 0.00 0.00 0.00 0.00 0.00 0.00 0.00 0.00 0.00 0.00 0.00 0.00 0.00
0.00 0.00 0.00 0.00 0.00 0.00 0.00 0.00 0.00 0.00 0.00 0.00 0.00 0.00 0.00 0.00 0.00 0.00 0.00 0.00 0.00 0.00 0.00 0.00 0.00 0.00 0.00 0.00 0.00 0.00 0.00 0.00 0.00 0.00 0.00 0.00 0.00 0.00 0.00 0.00 0.00 0.00 0.00
0.00 0.00 0.00 0.00 0.00 0.00 0.00 0.00 0.00 0.00 0.00 0.00 0.00 0.00 0.00 0.00 0.00 0.00 0.00 0.00 0.00 0.00 0.00 0.00 0.00 0.00 0.00 0.00 0.00 0.00 0.00 0.00 0.00 0.00 0.00 0.00 0.00 0.00 0.00 0.00 0.00 0.00 0.00
0.00 0.00 0.00 0.00 0.00 0.00 0.00 0.00 0.00 0.00 0.00 0.00 0.00 0.00 0.00 0.00 0.00 0.00 0.00 0.00 0.00 0.00 0.00 0.00 0.00 0.00 0.00 0.00 0.00 0.00 0.00 0.00 0.00 0.00 0.00 0.00 0.00 0.00 0.00 0.00 0.00 0.00 0.00
0.00 0.00 0.00 0.00 0.00 0.00 0.00 0.00 0.00 0.00 0.00 0.00 0.00 0.00 0.00 0.00 0.00 0.00 0.00 0.00 0.00 0.00 0.00 0.00 0.00 0.00 0.00 0.00 0.00 0.00 0.00 0.00 0.00 0.00 0.00 0.00 0.00 0.00 0.00 0.00 0.00 0.00 0.00
0.00 0.00 0.00 0.00 0.00 0.00 0.00 0.00 0.00 0.00 0.00 0.00 0.00 0.00 0.00 0.00 0.00 0.00 0.00 0.00 0.00 0.00 0.00 0.00 0.00 0.00 0.00 0.00 0.00 0.00 0.00 0.00 0.00 0.00 0.00 0.00 0.00 0.00 0.00 0.00 0.00 0.00 0.00
0.00 0.00 0.00 0.00 0.00 0.00 0.00 0.00 0.00 0.00 0.00 0.00 0.00 0.00 0.00 0.00 0.00 0.00 0.00 0.00 0.00 0.00 0.00 0.00 0.00 0.00 0.00 0.00 0.00 0.00 0.00 0.00 0.00 0.00 0.00 0.00 0.00 0.00 0.00 0.00 0.00 0.00 0.00
0.00 0.00 0.00 0.00 0.00 0.00 0.00 0.00 0.00 0.00 0.00 0.00 0.00 0.00 0.00 0.00 0.00 0.00 0.00 0.00 0.00 0.00 0.00 0.00 0.00 0.00 0.00 0.00 0.00 0.00 0.00 0.00 0.00 0.00 0.00 0.00 0.00 0.00 0.00 0.00 0.00 0.00 0.00
0.00 0.00 0.00 0.00 0.00 0.00 0.00 0.00 0.00 0.00 0.00 0.00 0.00 0.00 0.00 0.00 0.00 0.00 0.00 0.00 0.00 0.00 0.00 0.00 0.00 0.00 0.00 0.00 0.00 0.00 0.00 0.00 0.00 0.00 0.00 0.00 0.00 0.00 0.00 0.00 0.00 0.00 0.00
0.00 0.00 0.00 0.01 0.02 0.00 0.00 0.00 0.00 0.00 0.00 0.00 0.00 0.00 0.00 0.00 0.00 0.00 0.00 0.00 0.00 0.00 0.00 0.00 0.00 0.00 0.00 0.00 0.00 0.00 0.00 0.00 0.00 0.00 0.00 0.00 0.00 0.00 0.00 0.00 0.00 0.00 0.00
0.00 0.00 0.00 0.01 0.06 0.06 0.04 0.03 0.01 0.00 0.00 0.00 0.00 0.00 0.00 0.00 0.00 0.00 0.00 0.00 0.00 0.00 0.00 0.00 0.00 0.00 0.00 0.00 0.00 0.00 0.00 0.00 0.00 0.00 0.00 0.00 0.00 0.00 0.00 0.00 0.00 0.00 0.00
0.03 0.00 0.01 0.01 0.01 0.01 0.03 0.03 0.02 0.01 0.00 0.00 0.00 0.00 0.00 0.00 0.00 0.00 0.00 0.00 0.00 0.00 0.00 0.00 0.00 0.00 0.00 0.00 0.00 0.00 0.00 0.00 0.00 0.00 0.00 0.00 0.00 0.00 0.00 0.00 0.00 0.00 0.00
0.04 0.01 0.03 0.04 0.03 0.02 0.01 0.00 0.01 0.02 0.01 0.01 0.00 0.00 0.00 0.00 0.00 0.01 0.02 0.02 0.01 0.00 0.00 0.00 0.00 0.00 0.00 0.00 0.00 0.00 0.00 0.00 0.00 0.00 0.00 0.00 0.00 0.00 0.00 0.00 0.00 0.00 0.00
0.06 0.04 0.03 0.03 0.03 0.03 0.02 0.01 0.00 0.00 0.00 0.01 0.02 0.02 0.01 0.02 0.00 0.01 0.03 0.05 0.05 0.07 0.04 0.00 0.00 0.00 0.00 0.00 0.00 0.00 0.00 0.00 0.00 0.00 0.00 0.00 0.00 0.00 0.00 0.00 0.00 0.00 0.00
0.02 0.02 0.02 0.02 0.04 0.04 0.03 0.02 0.01 0.01 0.01 0.01 0.03 0.03 0.02 0.03 0.01 0.00 0.00 0.00 0.01 0.02 0.05 0.03 0.01 0.01 0.02 0.01 0.00 0.00 0.00 0.00 0.00 0.00 0.00 0.00 0.00 0.00 0.00 0.00 0.00 0.00 0.00
0.01 0.01 0.02 0.02 0.02 0.02 0.02 0.03 0.04 0.03 0.03 0.02 0.03 0.02 0.02 0.02 0.00 0.02 0.01 0.01 0.00 0.01 0.03 0.07 0.05 0.03 0.02 0.01 0.01 0.00 0.00 0.00 0.00 0.00 0.00 0.00 0.00 0.00 0.00 0.00 0.00 0.00 0.00
0.01 0.01 0.01 0.01 0.02 0.01 0.01 0.02 0.03 0.04 0.04 0.03 0.02 0.02 0.01 0.01 0.01 0.02 0.03 0.02 0.01 0.01 0.01 0.02 0.01 0.02 0.01 0.00 0.00 0.01 0.02 0.01 0.00 0.00 0.00 0.00 0.00 0.00 0.00 0.00 0.00 0.00 0.00
0.00 0.00 0.01 0.01 0.02 0.02 0.00 0.01 0.02 0.03 0.04 0.03 0.03 0.03 0.02 0.01 0.01 0.02 0.03 0.03 0.03 0.03 0.01 0.00 0.00 0.01 0.00 0.00 0.01 0.02 0.03 0.03 0.02 0.00 0.00 0.00 0.00 0.00 0.00 0.00 0.00 0.00 0.00
0.00 0.00 0.00 0.00 0.01 0.01 0.00 0.01 0.01 0.01 0.01 0.01 0.02 0.03 0.02 0.02 0.03 0.02 0.01 0.03 0.04 0.03 0.02 0.00 0.00 0.01 0.01 0.01 0.02 0.08 0.08 0.06 0.03 0.01 0.01 0.00 0.00 0.00 0.00 0.00 0.00 0.00 0.00
0.00 0.00 0.00 0.00 0.00 0.00 0.00 0.02 0.04 0.02 0.01 0.00 0.01 0.04 0.04 0.04 0.06 0.07 0.07 0.06 0.03 0.02 0.02 0.02 0.01 0.00 0.00 0.01 0.01 0.02 0.03 0.06 0.05 0.02 0.01 0.00 0.00 0.00 0.00 0.00 0.00 0.00 0.00
0.00 0.00 0.00 0.00 0.00 0.01 0.04 0.07 0.11 0.05 0.01 0.00 0.00 0.01 0.01 0.02 0.05 0.08 0.12 0.15 0.14 0.13 0.11 0.09 0.04 0.02 0.01 0.02 0.04 0.05 0.06 0.08 0.09 0.05 0.03 0.04 0.02 0.01 0.01 0.00 0.00 0.00 0.00
0.01 0.01 0.02 0.04 0.11 0.08 0.09 0.06 0.05 0.03 0.01 0.00 0.00 0.00 0.02 0.01 0.01 0.05 0.15 0.26 0.30 0.24 0.19 0.16 0.08 0.03 0.01 0.02 0.04 0.09 0.09 0.10 0.05 0.03 0.01 0.01 0.02 0.05 0.07 0.03 0.00 0.00 0.00
MSLP
1024.50 1024.65 1024.65 1024.95 1025.58 1026.11 1026.40 1026.77 1026.91 1027.07 1027.50 1027.76 1028.17 1028.48 1028.73 1028.77 1028.78 1028.80 1028.82 1028.65 1028.73 1028.89 1028.97 1029.13 1029.45 1029.49 1029.81 1030.02 1030.44 1030.40 1030.43 1030.60 1030.64 1030.70 1030.82 1030.90 1031.00 1030.82 1030.94 1030.94 1030.82 1030.81 1030.65
1024.55 1024.71 1025.01 1025.22 1025.80 1026.14 1026.28 1026.44 1026.67 1027.09 1027.61 1027.90 1028.36 1028.63 1028.97 1029.12 1029.09 1029.10 1029.06 1029.05 1028.95 1029.05 1029.25 1029.29 1029.53 1029.69 1029.99 1030.20 1030.39 1030.65 1030.71 1030.75 1030.83 1030.92 1031.05 1031.13 1031.18 1031.13 1031.09 1031.10 1031.11 1031.09 1031.00
1024.47 1024.66 1025.05 1025.35 1025.74 1026.15 1026.32 1026.71 1027.05 1027.28 1027.89 1028.15 1028.52 1028.78 1029.07 1029.36 1029.44 1029.40 1029.33 1029.37 1029.42 1029.32 1029.41 1029.57 1029.72 1029.84 1030.02 1030.31 1030.58 1030.74 1030.97 1031.10 1031.33 1031.32 1031.38 1031.35 1031.43 1031.43 1031.28 1031.32 1031.22 1031.35 1031.36
1024.22 1024.55 1024.91 1025.28 1025.70 1026.30 1026.56 1026.83 1027.03 1027.56 1028.08 1028.36 1028.88 1029.09 1029.32 1029.48 1029.62 1029.68 1029.68 1029.63 1029.71 1029.73 1029.62 1029.75 1029.86 1029.94 1030.07 1030.33 1030.57 1030.80 1031.02 1031.16 1031.32 1031.43 1031.45 1031.40 1031.48 1031.49 1031.42 1031.46 1031.48 1031.47 1031.64
1024.14 1024.38 1024.75 1025.10 1025.68 1026.20 1026.67 1026.82 1027.29 1027.33 1028.20 1028.66 1029.00 1029.33 1029.58 1029.76 1029.80 1029.79 1029.92 1029.92 1029.86 1029.88 1029.99 1029.87 1030.06 1030.17 1030.28 1030.35 1030.49 1030.59 1030.92 1031.11 1031.21 1031.48 1031.63 1031.63 1031.65 1031.53 1031.66 1031.67 1031.79 1031.83 1031.78
1023.98 1024.34 1024.74 1025.03 1025.52 1026.05 1026.53 1026.80 1027.13 1027.68 1028.01 1028.49 1029.12 1029.63 1029.89 1030.02 1029.99 1029.96 1029.95 1029.98 1029.99 1029.97 1029.99 1030.10 1030.11 1030.22 1030.20 1030.23 1030.35 1030.40 1030.65 1030.92 1031.08 1031.31 1031.53 1031.63 1031.72 1031.79 1031.77 1031.82 1031.81 1031.81 1031.82
1023.55 1024.06 1024.56 1024.98 1025.22 1025.56 1026.04 1026.58 1027.27 1027.66 1028.40 1028.69 1029.46 1030.25 1030.28 1030.32 1030.28 1030.16 1030.02 1030.08 1030.02 1029.92 1029.99 1030.07 1030.18 1030.19 1030.24 1030.16 1030.24 1030.19 1030.26 1030.45 1030.75 1031.09 1031.29 1031.55 1031.63 1031.79 1031.88 1031.94 1031.92 1031.94 1031.93
1023.09 1023.69 1024.31 1024.85 1025.23 1025.65 1026.04 1026.39 1026.60 1027.68 1028.23 1028.50 1029.10 1029.98 1030.58 1030.57 1030.18 1029.99 1030.18 1030.09 1029.98 1029.82 1029.96 1029.91 1030.05 1030.09 1030.08 1030.12 1030.10 1029.99 1029.95 1029.96 1030.27 1030.66 1030.98 1031.22 1031.45 1031.58 1031.72 1031.85 1031.88 1031.78 1031.79
1022.56 1023.15 1023.84 1024.36 1024.98 1025.41 1025.95 1026.40 1026.49 1026.67 1027.49 1028.19 1028.13 1028.60 1030.01 1029.82 1029.93 1029.78 1029.78 1029.86 1029.75 1029.89 1029.69 1029.74 1029.76 1029.81 1029.78 1029.83 1029.82 1029.76 1029.73 1029.70 1029.78 1030.02 1030.38 1030.73 1030.96 1031.17 1031.46 1031.58 1031.63 1031.72 1031.76
1022.21 1022.76 1023.31 1023.82 1024.35 1024.98 1025.70 1026.15 1026.29 1026.50 1026.93 1027.70 1028.23 1027.99 1028.20 1028.56 1029.31 1029.81 1029.48 1029.39 1029.47 1029.51 1029.47 1029.50 1029.37 1029.43 1029.42 1029.49 1029.47 1029.48 1029.50 1029.51 1029.47 1029.61 1029.80 1030.07 1030.43 1030.75 1030.91 1031.09 1031.30 1031.48 1031.53
1021.94 1022.39 1022.92 1023.43 1023.86 1024.29 1024.79 1025.53 1026.14 1026.36 1026.70 1027.09 1027.41 1027.81 1028.24 1028.35 1028.44 1028.99 1029.19 1029.03 1029.22 1028.77 1028.73 1028.91 1028.90 1028.86 1028.89 1028.92 1029.01 1028.98 1028.92 1029.08 1029.27 1029.27 1029.35 1029.46 1029.74 1030.00 1030.34 1030.49 1030.66 1030.89 1031.09
1021.58 1022.08 1022.61 1023.06 1023.36 1023.80 1024.28 1024.77 1025.29 1025.60 1026.08 1026.49 1026.78 1026.99 1027.20 1027.62 1028.01 1028.33 1028.72 1028.61 1028.56 1028.05 1027.90 1028.06 1028.40 1028.36 1028.19 1028.23 1028.19 1028.27 1028.34 1028.39 1028.61 1028.80 1028.85 1028.99 1029.11 1029.34 1029.64 1029.82 1029.96 1030.10 1030.27
1021.28 1021.67 1021.99 1022.57 1022.96 1023.29 1023.73 1024.12 1024.65 1024.99 1025.34 1025.79 1026.02 1026.27 1026.53 1026.70 1026.80 1027.15 1027.56 1027.91 1028.08 1027.64 1027.57 1027.24 1027.01 1027.22 1027.34 1027.49 1027.39 1027.45 1027.57 1027.73 1027.93 1028.09 1028.24 1028.35 1028.58 1028.73 1028.97 1029.09 1029.15 1029.27 1029.39
1020.32 1020.79 1021.10 1021.67 1022.11 1022.51 1022.97 1023.49 1023.97 1024.27 1024.51 1024.61 1025.06 1025.45 1025.63 1025.79 1026.10 1026.24 1026.44 1027.06 1027.45 1027.33 1027.08 1026.65 1026.26 1026.06 1026.21 1026.27 1026.27 1026.43 1026.78 1026.81 1027.05 1027.33 1027.61 1027.79 1027.87 1028.02 1028.19 1028.40 1028.51 1028.60 1028.74
1019.72 1020.15 1020.48 1020.96 1021.51 1021.89 1022.20 1022.70 1023.13 1023.45 1023.85 1024.01 1024.15 1024.57 1024.84 1024.89 1025.06 1025.29 1025.51 1025.76 1026.07 1026.45 1026.08 1025.53 1025.64 1024.97 1024.93 1025.24 1025.16 1025.54 1025.68 1025.71 1026.06 1026.43 1026.66 1026.77 1027.01 1027.27 1027.47 1027.64 1027.83 1027.97 1028.10
1019.23 1019.52 1019.94 1020.24 1020.72 1021.13 1021.47 1021.95 1022.42 1022.55 1023.00 1023.26 1023.34 1023.58 1023.90 1024.02 1024.04 1024.10 1024.35 1024.73 1025.01 1025.06 1024.79 1024.33 1024.30 1024.02 1024.17 1024.21 1024.23 1024.58 1024.58 1024.75 1024.98 1025.19 1025.56 1025.82 1026.04 1026.23 1026.50 1026.77 1026.96 1027.16 1027.34
1019.05 1019.13 1019.18 1019.61 1020.03 1020.43 1020.71 1021.22 1021.45 1021.81 1022.22 1022.21 1022.56 1022.67 1022.64 1022.92 1023.24 1023.38 1023.56 1023.64 1023.70 1023.99 1023.73 1022.91 1023.06 1023.03 1023.51 1023.58 1023.51 1023.62 1023.66 1023.81 1023.80 1024.01 1024.22 1024.49 1024.78 1025.06 1025.38 1025.69 1025.95 1026.17 1026.36
1018.54 1018.84 1018.90 1019.24 1019.41 1019.59 1020.09 1020.37 1020.64 1020.92 1021.22 1021.44 1021.43 1021.84 1021.88 1022.14 1022.18 1022.27 1022.58 1022.58 1022.67 1022.53 1022.66 1022.46 1022.33 1022.62 1022.69 1022.44 1022.25 1022.69 1022.62 1022.61 1022.62 1022.51 1022.83 1023.12 1023.47 1023.81 1024.07 1024.29 1024.63 1024.96 1025.25
1018.26 1018.26 1018.54 1018.60 1018.77 1019.01 1019.22 1019.55 1019.70 1020.04 1020.28 1020.29 1020.43 1020.66 1020.62 1020.87 1021.19 1021.17 1021.31 1021.49 1021.58 1021.56 1021.68 1021.70 1020.91 1021.20 1021.43 1021.68 1021.84 1021.77 1021.67 1021.50 1021.58 1021.45 1021.63 1021.84 1022.17 1022.36 1022.66 1022.95 1023.20 1023.60 1023.92
1018.10 1017.78 1017.90 1018.05 1018.07 1018.10 1018.23 1018.50 1018.85 1019.10 1019.24 1019.36 1019.45 1019.71 1019.74 1019.79 1019.76 1019.86 1020.24 1020.30 1020.42 1020.51 1020.34 1020.20 1020.12 1020.18 1020.37 1020.61 1020.96 1020.72 1020.86 1020.91 1020.62 1020.66 1020.75 1020.68 1021.01 1021.25 1021.45 1021.59 1021.86 1022.02 1022.43
1017.66 1017.45 1017.24 1017.34 1017.48 1017.49 1017.51 1017.78 1017.99 1018.09 1018.10 1018.23 1018.28 1018.43 1018.45 1018.39 1018.40 1018.57 1018.91 1019.10 1019.37 1019.26 1019.07 1019.03 1018.84 1018.85 1019.05 1019.57 1019.38 1019.30 1019.63 1019.31 1019.71 1019.82 1020.03 1019.81 1020.16 1020.19 1020.03 1020.44 1020.57 1020.71 1020.72
1017.22 1016.98 1016.64 1016.57 1016.55 1016.67 1016.72 1016.83 1016.89 1017.06 1017.04 1016.96 1016.91 1016.95 1017.14 1017.18 1017.32 1017.37 1017.61 1017.64 1017.67 1018.04 1017.99 1017.93 1017.69 1017.41 1017.05 1017.31 1017.45 1017.70 1018.14 1018.92 1018.95 1017.90 1018.36 1017.90 1018.53 1018.53 1018.38 1018.51 1018.26 1018.64 1019.05
1017.14 1016.63 1016.08 1015.75 1015.67 1015.79 1015.95 1016.04 1015.97 1016.10 1015.95 1015.74 1015.70 1015.75 1015.80 1015.88 1016.06 1016.38 1016.51 1016.70 1016.72 1016.79 1016.57 1016.55 1016.39 1015.88 1015.60 1015.61 1016.11 1016.55 1016.77 1016.58 1016.62 1016.45 1017.32 1016.80 1016.59 1016.62 1016.31 1016.58 1016.70 1016.93 1017.30
1016.70 1016.21 1015.55 1015.07 1014.98 1015.03 1015.25 1015.23 1015.01 1015.30 1015.13 1014.92 1014.84 1014.82 1014.77 1014.72 1014.93 1015.26 1015.35 1015.15 1015.01 1015.02 1015.12 1015.62 1015.46 1014.83 1014.64 1014.52 1014.62 1014.69 1014.89 1015.24 1015.31 1015.25 1015.82 1015.94 1015.30 1014.82 1014.77 1014.72 1014.90 1015.35 1015.70
1016.06 1015.49 1014.80 1014.44 1014.51 1014.78 1015.33 1015.40 1015.45 1015.38 1014.83 1014.43 1014.13 1013.91 1013.85 1013.85 1014.02 1014.30 1014.31 1013.89 1013.57 1013.08 1013.27 1013.41 1013.61 1013.61 1013.66 1013.68 1013.60 1013.92 1013.89 1014.10 1013.70 1013.69 1014.41 1014.30 1014.12 1014.15 1013.96 1013.84 1013.72 1013.71 1014.11
1015.86 1015.09 1014.37 1014.49 1015.14 1016.03 1016.18 1015.99 1015.69 1014.99 1014.55 1014.13 1013.59 1013.24 1013.09 1013.12 1013.07 1013.12 1013.13 1012.77 1012.23 1011.94 1011.97 1012.24 1011.99 1012.24 1012.54 1012.50 1012.70 1012.71 1012.61 1012.35 1012.25 1012.10 1012.44 1013.48 1012.85 1013.56 1013.36 1011.95 1012.38 1012.31 1012.73
Thickness
5665 5667 5669 5668 5662 5658 5656 5654 5653 5649 5646 5642 5637 5633 5630 5629 5627 5626 5625 5623 5621 5618 5617 5613 5610 5608 5605 5602 5599 5597 5595 5593 5591 5589 5586 5583 5580 5578 5573 5570 5567 5564 5561
5661 5664 5663 5663 5658 5656 5655 5654 5653 5648 5644 5640 5635 5632 5628 5626 5625 5624 5623 5621 5619 5616 5613 5612 5608 5606 5603 5600 5597 5595 5594 5592 5590 5586 5583 5580 5578 5576 5572 5569 5565 5561 5558
5658 5660 5658 5658 5656 5654 5652 5650 5648 5645 5640 5636 5633 5630 5626 5623 5621 5621 5620 5618 5615 5613 5611 5609 5606 5603 5602 5598 5595 5594 5591 5588 5585 5582 5580 5578 5575 5572 5570 5566 5563 5559 5555
5656 5656 5655 5654 5652 5650 5649 5647 5645 5641 5638 5636 5631 5628 5624 5621 5619 5617 5616 5616 5614 5611 5609 5607 5604 5601 5600 5597 5594 5592 5589 5587 5584 5581 5578 5577 5573 5570 5568 5564 5561 5556 5550
5652 5653 5651 5650 5647 5646 5645 5645 5643 5641 5634 5632 5629 5625 5620 5617 5615 5614 5613 5612 5611 5609 5606 5605 5602 5599 5597 5595 5593 5591 5588 5586 5583 5580 5576 5574 5571 5570 5565 5561 5557 5552 5547
5649 5648 5646 5646 5644 5642 5641 5642 5641 5637 5634 5630 5626 5620 5617 5614 5612 5612 5611 5609 5609 5607 5605 5602 5601 5598 5596 5593 5592 5591 5588 5585 5582 5578 5575 5572 5569 5565 5562 5559 5554 5551 5547
5648 5647 5644 5641 5641 5640 5638 5637 5635 5634 5629 5626 5618 5612 5611 5610 5609 5608 5608 5607 5606 5606 5604 5601 5599 5598 5595 5592 5590 5589 5588 5585 5581 5577 5573 5570 5566 5563 5559 5556 5552 5548 5544
5645 5643 5640 5637 5637 5634 5632 5631 5633 5627 5626 5625 5620 5612 5606 5606 5607 5606 5604 5604 5605 5604 5602 5600 5598 5597 5595 5592 5590 5588 5587 5586 5582 5577 5572 5569 5565 5561 5557 5553 5550 5548 5543
5644 5641 5638 5635 5633 5632 5629 5627 5627 5627 5622 5620 5623 5619 5606 5608 5605 5606 5605 5603 5602 5601 5601 5599 5597 5596 5595 5593 5590 5588 5586 5584 5582 5579 5574 5569 5565 5561 5556 5552 5549 5545 5541
5640 5638 5635 5633 5630 5628 5627 5624 5624 5623 5622 5618 5615 5619 5617 5615 5608 5606 5606 5604 5603 5600 5599 5599 5597 5596 5595 5593 5591 5589 5586 5584 5582 5578 5574 5570 5565 5561 5556 5552 5548 5543 5539
5633 5633 5631 5630 5628 5627 5626 5623 5619 5619 5617 5616 5614 5613 5609 5610 5609 5605 5604 5604 5600 5602 5601 5598 5598 5597 5596 5594 5592 5590 5587 5584 5580 5577 5574 5571 5566 5562 5556 5552 5548 5543 5539
5632 5630 5628 5626 5626 5624 5622 5621 5619 5617 5615 5613 5613 5610 5611 5609 5606 5604 5600 5599 5600 5603 5602 5600 5598 5597 5596 5594 5594 5592 5588 5585 5581 5577 5574 5570 5566 5562 5557 5553 5549 5545 5541
5631 5630 5628 5626 5625 5622 5621 5618 5615 5614 5612 5611 5610 5609 5609 5608 5609 5608 5604 5600 5598 5600 5600 5601 5601 5599 5597 5595 5594 5592 5590 5586 5582 5578 5574 5571 5566 5562 5558 5555 5551 5547 5543
5632 5630 5630 5627 5625 5624 5621 5617 5612 5611 5610 5610 5609 5607 5608 5607 5606 5606 5605 5601 5595 5595 5596 5601 5603 5602 5600 5599 5597 5594 5590 5588 5584 5579 5574 5570 5567 5563 5559 5555 5551 5547 5543
5628 5628 5628 5626 5623 5622 5620 5617 5614 5611 5607 5606 5605 5604 5605 5606 5605 5604 5603 5603 5602 5601 5603 5601 5600 5604 5604 5600 5600 5596 5593 5591 5587 5581 5577 5573 5569 5564 5560 5556 5551 5546 5541
5622 5624 5625 5625 5622 5620 5619 5616 5613 5612 5608 5604 5604 5607 5605 5604 5604 5603 5601 5600 5600 5602 5607 5602 5603 5604 5603 5601 5600 5596 5593 5591 5588 5584 5578 5575 5571 5566 5561 5556 5552 5547 5542
5616 5619 5624 5622 5621 5619 5617 5615 5614 5612 5609 5608 5605 5606 5607 5603 5600 5599 5597 5599 5600 5599 5603 5611 5607 5606 5601 5599 5597 5596 5593 5590 5589 5585 5581 5577 5573 5568 5563 5557 5553 5548 5544
5611 5612 5615 5615 5618 5618 5614 5614 5612 5611 5609 5607 5609 5604 5605 5601 5598 5599 5593 5595 5596 5599 5597 5605 5605 5600 5599 5600 5599 5595 5593 5591 5590 5587 5583 5579 5576 5570 5565 5561 5556 5550 5545
5607 5610 5611 5612 5613 5613 5613 5612 5612 5609 5608 5609 5608 5606 5607 5603 5602 5602 5595 5593 5592 5594 5593 5594 5607 5601 5599 5596 5593 5593 5592 5592 5588 5587 5585 5581 5576 5572 5568 5563 5559 5553 5547
5598 5605 5608 5609 5611 5613 5614 5614 5611 5608 5607 5607 5607 5605 5605 5604 5604 5603 5598 5595 5594 5592 5593 5593 5596 5599 5597 5593 5588 5592 5588 5586 5586 5583 5581 5579 5575 5571 5566 5564 5559 5556 5549
5590 5596 5601 5605 5607 5609 5611 5610 5609 5608 5608 5607 5607 5606 5607 5607 5606 5605 5600 5598 5593 5592 5593 5590 5592 5594 5594 5589 5591 5590 5587 5590 5584 5580 5577 5575 5572 5569 5568 5560 5556 5553 5552
5582 5587 5595 5600 5604 5605 5606 5605 5606 5606 5607 5607 5610 5610 5608 5607 5605 5604 5600 5599 5598 5593 5592 5590 5591 5594 5599 5595 5593 5588 5584 5576 5577 5587 5576 5581 5573 5572 5569 5565 5562 5557 5552
5571 5580 5588 5595 5599 5601 5601 5599 5600 5602 5604 5607 5608 5608 5608 5609 5606 5602 5599 5594 5593 5590 5591 5591 5592 5596 5596 5594 5587 5583 5580 5585 5584 5584 5573 5576 5577 5576 5575 5569 5564 5559 5553
5562 5572 5581 5588 5593 5596 5594 5595 5596 5596 5601 5604 5605 5606 5606 5607 5604 5600 5598 5599 5598 5595 5592 5584 5584 5591 5591 5591 5586 5585 5583 5579 5578 5579 5573 5570 5574 5578 5576 5571 5567 5561 5554
5556 5566 5577 5581 5583 5584 5577 5579 5581 5584 5591 5596 5600 5602 5603 5603 5600 5594 5593 5596 5597 5600 5593 5592 5585 5585 5585 5585 5583 5578 5576 5573 5578 5580 5570 5567 5572 5566 5565 5566 5562 5558 5552
5546 5557 5566 5567 5563 5559 5560 5565 5568 5576 5582 5588 5592 5595 5595 5595 5594 5591 5591 5592 5594 5595 5593 5587 5587 5586 5580 5578 5578 5576 5574 5571 5573 5573 5573 5561 5568 5556 5553 5565 5559 5553 5546